Regional Weather Roundup
Issued by NWS

Home | Current Version | Previous Version | Graphics & Text | Print | Product List | Glossary On
Versions: 1 2 3 4 5 6 7 8 9 10 11 12 13 14 15 16 17 18 19 20 21 22 23 24 25 26 27 28 29 30 31 32 33 34 35 36 37 38 39 40 41 42 43 44 45 46 47 48 49 50
690
ASUS43 KMKX 270211
RWRWI

WISCONSIN REGIONAL WEATHER ROUNDUP
NATIONAL WEATHER SERVICE MILWAUKEE/SULLIVAN WI
900 PM CDT SAT MAY 26 2018

NOTE: "FAIR" INDICATES FEW OR NO CLOUDS BELOW 12,000 FEET WITH NO
SIGNIFICANT WEATHER AND/OR OBSTRUCTIONS TO VISIBILITY.

WIZ001-002-006>008-014>016-023>028-270300-
NORTHWEST WISCONSIN

CITY           SKY/WX    TMP DP  RH WIND       PRES   REMARKS
SUPERIOR ARPT  CLOUDY    48  48  98 E6        29.76R
ASHLAND        FAIR      57  54  89 N3        29.74R
HAYWARD        FAIR      72  58  61 CALM      29.72R
SIREN          FAIR      74  53  48 CALM      29.72R
CUMBERLAND     FAIR      79  48  34 NW5       29.73S
RICE LAKE      FAIR      80  55  41 CALM      29.74R HX  80
CHETEK         FAIR      78  60  54 W3        29.72R
LADYSMITH      FAIR      76  60  56 MISG      29.74R
EAU CLAIRE     FAIR      78  60  53 SW3       29.70R
MENOMONIE      FAIR      82  57  41 SW5       29.71R HX  82
NEW RICHMOND   FAIR      79  55  44 CALM      29.72S
OSCEOLA        FAIR      78  58  49 CALM      29.74S
$$

WIZ003>005-009-010-017-018-270300-
NORTH CENTRAL WISCONSIN

CITY           SKY/WX    TMP DP  RH WIND       PRES   REMARKS
MANITOWISH WTR MOCLDY    69  59  70 CALM      29.74R
ARBOR VITAE    FAIR      73  59  60 CALM      29.73S
WOODRUFF       FAIR      73  59  60 CALM      29.73S
RHINELANDER    FAIR      72  61  68 W3        29.75R
EAGLE RIVER    FAIR      70  56  62 E6        29.76R
LAND O LAKES   FAIR      69  59  70 CALM      29.78R
PHILLIPS       MOCLDY    73  58  59 CALM      29.73R
TOMAHAWK       FAIR      69  57  66 CALM      29.74R
MEDFORD        FAIR      73  58  59 CALM      29.75R
MERRILL        FAIR      74  60  61 CALM      29.74R
$$

WIZ029-030-035-036-043>047-270300-
CENTRAL WISCONSIN

CITY           SKY/WX    TMP DP  RH WIND       PRES   REMARKS
WAUSAU         NOT AVBL
MOSINEE        PTCLDY    79  57  47 SW3       29.75R HX  80
MARSHFIELD     FAIR      79  61  53 SW5       29.74R HX  80
STEVENS POINT  FAIR      73  61  65 CALM      29.74R
WAUPACA        FAIR      77  60  56 CALM      29.73R
WAUTOMA        FAIR      78  61  55 SW3       29.74R HX  80
WISC RAPIDS    FAIR      76  59  55 S3        29.74R
CAMP DOUGLAS   FAIR      80  60  49 SW3       29.74R HX  81
$$

WIZ011>013-019>022-031-037>040-048>050-270300-
NORTHEAST WISCONSIN

CITY           SKY/WX    TMP DP  RH WIND       PRES   REMARKS
ANTIGO         FAIR      74  57  54 SW5       29.75R
SHAWANO        MOCLDY    77  61  57 E14G22    29.73R
OCONTO         FAIR      67  62  83 SE20G26   29.74F
STURGEON BAY   TSTM      66  59  78 SE6       29.79R
GREEN BAY      MOCLDY    83  58  42 CALM      29.73R HX  83
MANITOWOC      NOT AVBL
APPLETON       PTCLDY    79  55  44 SW6       29.72R
CLINTONVILLE   FAIR      80  58  46 SW5       29.71R HX  80
OSHKOSH        FAIR      79  62  56 SW5       29.73R HX  80
$$

WIZ032>034-041-042-053>061-270300-
SOUTHWEST WISCONSIN

CITY           SKY/WX    TMP DP  RH WIND       PRES   REMARKS
LA CROSSE      FAIR      82  66  58 S6        29.71R HX  84
SPARTA         FAIR      73  65  76 CALM      29.74S
VIROQUA        FAIR      80  63  55 S5        29.77S HX  82
BOSCOBEL       FAIR      75  70  84 CALM      29.74R
PRAIRIE DU CHI FAIR      79  67  66 CALM      29.74R HX  81
PLATTEVILLE    FAIR      82  65  56 CALM      29.78R HX  83
$$

WIZ056-057-062-063-064-067-068-270300-
SOUTH CENTRAL WISCONSIN

CITY           SKY/WX    TMP DP  RH WIND       PRES   REMARKS
REEDSBURG      FAIR      79  65  61 CALM      29.75R HX  81
BARABOO/DELLS  FAIR      78  61  55 SW3       29.76R
LONE ROCK      FAIR      74  68  81 CALM      29.75R
MINERAL POINT  FAIR      82  63  51 SW3       29.78S HX  83
MADISON        FAIR      78  64  61 VRB5      29.75R HX  80
MIDDLETON      FAIR      75  64  67 CALM      29.77R
WATERTOWN      FAIR      74  66  75 CALM      29.76R
MONROE         FAIR      82  57  42 SW6       29.78R HX  82
JANESVILLE     FAIR      79  59  50 CALM      29.77R HX  80
$$

WIZ051-052-058>065-066-070>072-270300-
SOUTHEAST WISCONSIN

CITY           SKY/WX    TMP DP  RH WIND       PRES   REMARKS
MILWAUKEE      FAIR      75  61  61 SE5       29.77R
WAUKESHA       CLEAR     79  57  47 S5        29.78R HX  80
MILWAUKEE/TIMM CLEAR     79  57  47 S6        29.77R HX  80
RACINE         FAIR      72  58  61 S6        29.79R
BURLINGTON     FAIR      76  64  66 CALM      29.77R
KENOSHA        FAIR      74  59  59 SE3       29.77R
FOND DU LAC    FAIR      79  60  52 S6        29.74R HX  80
SHEBOYGAN      FAIR      70  60  70 S6        29.75R
WEST BEND      FAIR      73  61  64 CALM      29.77R
JUNEAU         FAIR      79  60  51 CALM      29.77R HX  80
$$

LSZ147-162-270300-
LAKE SUPERIOR

STATION/POSITION TIME  TEMP    WIND        PRES    WAVE
                       AIR SEA DIR/SP/G            HT/PER
                 (UTC) (F)     (DEG/KT/KT) (MB)    (FT/S)
W MID LAKE BUOY  0150   39 36  340/  8/ 12 1006.8R   1/ 3
DEVILS ISLAND    0200   43      20/  7/  7 1007.7R
SAXON HARBOR     0140   50     320/  3/  5 1006.8R
$$

LMZ867-665-643>646-270300-
LAKE MICHIGAN

STATION/POSITION TIME  TEMP    WIND        PRES    WAVE
                       AIR SEA DIR/SP/G            HT/PER
                 (UTC) (F)     (DEG/KT/KT) (MB)    (FT/S)
N MID LAKE BUOY  0150   47 38  170/ 10/ 10 1007.0F   0
NORTHPORT PIER   0140   56     160/  2/  6 1007.5F
KEWAUNEE LAKESHO 0142   56      50/  6/ 17 1007.3R
SHEBOYGAN LAKESH 0200   65     190/ 11/ 12 1007.1R
PORT WASHINGTON  0130   63     200/  6/  8 1008.5R
ATWATER BUOY     0107   58 53  190/  8/  8 1007.9    1/ 2
MILWAUKEE LAKESH 0150          220/  4/  5   N/A
S MID LAKE BUOY  0150   56 41  160/  8/ 10 1008.6R   0
KENOSHA   LAKESH 0200   68                 1008.1
$$

TC  - TEMPERATURE IN CELSIUS
VSB - VISIBILITY IN STATUTE MILES
WCI - WIND CHILL INDEX
HX  - HEAT INDEX





USA.gov is the U.S. government's official web portal to all federal, state and local government web resources and services.